Location: Julian California
(33.0790°N, 116.6010°W)
Time: 08:17:08
(UTC-07:00)

NOSS 2-3 (D) - Pass Details

Date: 14 June 2018
Orbit: 625 x 1586 km, 63.4° (Epoch: 11 August)

Event Time Altitude Azimuth Distance (km) Brightness Sun altitude
Exits shadow 21:58:00 - 215° (SW) 2,744 6.7 -20.7°
Reaches altitude 10° 21:59:51 10° 218° (SW) 1,991 6.0 -21.0°
Maximum altitude 22:04:13 69° 302° (WNW) 702 3.9 -21.6°
Drops below altitude 10° 22:09:08 10° 26° (NNE) 2,231 6.7 -22.2°
Sets 22:11:43 0° 28° (NNE) 3,273 7.6 -22.6°
